contact:dominique.lefevre@mio.osupytheas.fr, maurice.libes@osupytheas.fr, didier.mallarino@osupytheas.fr
Project:EMSO http://www.emso-fr.org/EMSO-France
Depth: 2436.0 m
Title:EMSO Ligure Ouest : Data MII capteur CSTAR
DateTime,Latitude,Longitude,Instrument_Serial,Reference_Counts,Signal_Counts,Corrected_Signal_raw_counts,Calculated_Beam_c_inverse_meters,Internal_thermistor_counts
DateTime,Latitude,Longitude,Instrument_Serial,Reference_Counts,Signal_Counts,Corrected_Signal_raw_counts,Calculated_Beam_c_inverse_meters,Internal_thermistor_counts
2019-07-01T03:05:07,42.805,6.029,CST-1368DR,8851,12392,15511,0.027,552
2019-07-01T03:08:08,42.805,6.029,CST-1368DR,8852,12391,15508,0.028,551
2019-07-01T03:11:10,42.805,6.029,CST-1368DR,8853,12391,15507,0.028,551
2019-07-01T03:14:11,42.805,6.029,CST-1368DR,8854,12391,15505,0.029,551
2019-07-01T03:17:12,42.805,6.029,CST-1368DR,8853,12389,15505,0.029,551
2019-07-01T03:20:14,42.805,6.029,CST-1368DR,8853,12390,15505,0.029,551
2019-07-01T03:23:15,42.805,6.029,CST-1368DR,8853,12390,15505,0.029,551
2019-07-01T03:26:17,42.805,6.029,CST-1368DR,8853,12390,15505,0.029,551
2019-07-01T03:29:18,42.805,6.029,CST-1368DR,8853,12390,15506,0.028,551
2019-07-01T03:32:20,42.805,6.029,CST-1368DR,8852,12387,15503,0.029,551
2019-07-01T03:35:21,42.805,6.029,CST-1368DR,8852,12387,15504,0.029,551
2019-07-01T03:38:22,42.805,6.029,CST-1368DR,8851,12387,15505,0.029,551
2019-07-01T03:41:24,42.805,6.029,CST-1368DR,8851,12384,15501,0.030,551
2019-07-01T03:44:25,42.805,6.029,CST-1368DR,8851,12386,15504,0.029,551
2019-07-01T03:47:27,42.805,6.029,CST-1368DR,8851,12385,15502,0.029,551
2019-07-01T03:50:28,42.805,6.029,CST-1368DR,8850,12386,15505,0.029,551
2019-07-01T03:53:29,42.805,6.029,CST-1368DR,8850,12383,15501,0.030,551
2019-07-01T03:56:31,42.805,6.029,CST-1368DR,8850,12385,15504,0.029,551
2019-07-01T03:59:32,42.805,6.029,CST-1368DR,8850,12386,15505,0.029,551
2019-07-01T04:02:34,42.805,6.029,CST-1368DR,8849,12384,15505,0.029,551
2019-07-01T04:05:35,42.805,6.029,CST-1368DR,8849,12382,15502,0.029,551
2019-07-01T04:08:36,42.805,6.029,CST-1368DR,8849,12383,15503,0.029,551
2019-07-01T04:11:38,42.805,6.029,CST-1368DR,8849,12384,15504,0.029,550
2019-07-01T04:14:39,42.805,6.029,CST-1368DR,8848,12377,15497,0.031,551
2019-07-01T04:17:41,42.805,6.029,CST-1368DR,8848,12383,15505,0.029,551
2019-07-01T04:20:42,42.805,6.029,CST-1368DR,8848,12382,15503,0.029,550
2019-07-01T04:23:43,42.805,6.029,CST-1368DR,8848,12383,15504,0.029,551
2019-07-01T04:26:45,42.805,6.029,CST-1368DR,8848,12383,15505,0.029,551
2019-07-01T04:29:46,42.805,6.029,CST-1368DR,8847,12380,15503,0.029,551
2019-07-01T04:32:48,42.805,6.029,CST-1368DR,8847,12380,15502,0.029,551
2019-07-01T04:35:49,42.805,6.029,CST-1368DR,8847,12378,15500,0.030,551
2019-07-01T04:38:51,42.805,6.029,CST-1368DR,8847,12369,15489,0.033,551
2019-07-01T04:41:52,42.805,6.029,CST-1368DR,8847,12380,15503,0.029,551
2019-07-01T04:44:53,42.805,6.029,CST-1368DR,8847,12381,15504,0.029,551
2019-07-01T04:47:55,42.805,6.029,CST-1368DR,8847,12380,15502,0.029,551
2019-07-01T04:50:56,42.805,6.029,CST-1368DR,8846,12380,15504,0.029,551
2019-07-01T04:53:58,42.805,6.029,CST-1368DR,8846,12380,15504,0.029,551
2019-07-01T04:56:59,42.805,6.029,CST-1368DR,8846,12379,15503,0.029,550
2019-07-01T05:00:00,42.805,6.029,CST-1368DR,8846,12366,15487,0.033,551
2019-07-01T05:03:02,42.805,6.029,CST-1368DR,8846,12374,15496,0.031,551
2019-07-01T05:06:03,42.805,6.029,CST-1368DR,8846,12379,15503,0.029,551
2019-07-01T05:09:05,42.805,6.029,CST-1368DR,8846,12378,15502,0.029,551
2019-07-01T05:12:06,42.805,6.029,CST-1368DR,8846,12378,15502,0.029,551
2019-07-01T05:15:07,42.805,6.029,CST-1368DR,8845,12378,15504,0.029,551
2019-07-01T05:18:09,42.805,6.029,CST-1368DR,8845,12378,15504,0.029,551
2019-07-01T05:21:10,42.805,6.029,CST-1368DR,8845,12378,15503,0.029,551
2019-07-01T05:24:12,42.805,6.029,CST-1368DR,8845,12379,15504,0.029,551
2019-07-01T05:27:13,42.805,6.029,CST-1368DR,8845,12378,15503,0.029,551
2019-07-01T05:30:15,42.805,6.029,CST-1368DR,8845,12377,15502,0.029,551
2019-07-01T05:33:16,42.805,6.029,CST-1368DR,8845,12377,15502,0.029,551
2019-07-01T05:36:17,42.805,6.029,CST-1368DR,8845,12377,15502,0.029,551
2019-07-01T05:39:19,42.805,6.029,CST-1368DR,8844,12377,15503,0.029,551
2019-07-01T05:42:20,42.805,6.029,CST-1368DR,8844,12377,15504,0.029,551
2019-07-01T05:45:22,42.805,6.029,CST-1368DR,8844,12377,15504,0.029,551
2019-07-01T05:48:23,42.805,6.029,CST-1368DR,8844,12377,15503,0.029,551
2019-07-01T05:51:24,42.805,6.029,CST-1368DR,8844,12375,15502,0.029,551
2019-07-01T05:54:26,42.805,6.029,CST-1368DR,8844,12377,15504,0.029,551
2019-07-01T05:57:27,42.805,6.029,CST-1368DR,8844,12375,15502,0.029,551
2019-07-01T06:00:29,42.805,6.029,CST-1368DR,8844,12376,15503,0.029,551
2019-07-01T06:03:30,42.805,6.029,CST-1368DR,8844,12377,15504,0.029,550
2019-07-01T06:06:31,42.805,6.029,CST-1368DR,8844,12375,15502,0.029,551
2019-07-01T06:09:33,42.805,6.029,CST-1368DR,8843,12375,15503,0.029,550
2019-07-01T06:12:34,42.805,6.029,CST-1368DR,8843,12377,15505,0.029,551
2019-07-01T06:15:36,42.805,6.029,CST-1368DR,8843,12376,15505,0.029,551
2019-07-01T06:18:37,42.805,6.029,CST-1368DR,8843,12374,15502,0.029,551
2019-07-01T06:21:38,42.805,6.029,CST-1368DR,8843,12373,15500,0.030,551
2019-07-01T06:24:40,42.805,6.029,CST-1368DR,8843,12375,15503,0.029,550
2019-07-01T06:27:41,42.805,6.029,CST-1368DR,8843,12375,15503,0.029,551
2019-07-01T06:30:43,42.805,6.029,CST-1368DR,8843,12376,15504,0.029,551
2019-07-01T06:33:44,42.805,6.029,CST-1368DR,8842,12324,15440,0.045,551
2019-07-01T06:36:46,42.805,6.029,CST-1368DR,8842,12283,15390,0.058,550
2019-07-01T06:39:47,42.805,6.029,CST-1368DR,8842,12339,15459,0.040,551
2019-07-01T06:42:48,42.805,6.029,CST-1368DR,8843,12374,15501,0.030,551
2019-07-01T06:45:50,42.805,6.029,CST-1368DR,8842,12373,15502,0.029,551
2019-07-01T06:48:51,42.805,6.029,CST-1368DR,8842,12374,15503,0.029,551
2019-07-01T06:51:53,42.805,6.029,CST-1368DR,8842,12373,15502,0.029,551
2019-07-01T06:54:54,42.805,6.029,CST-1368DR,8842,12373,15502,0.029,551
2019-07-01T06:57:55,42.805,6.029,CST-1368DR,8842,12373,15502,0.029,551
2019-07-01T07:00:57,42.805,6.029,CST-1368DR,8842,12374,15503,0.029,550
2019-07-01T07:03:58,42.805,6.029,CST-1368DR,8842,12374,15503,0.029,551
2019-07-01T07:07:00,42.805,6.029,CST-1368DR,8842,12374,15503,0.029,551
2019-07-01T07:10:01,42.805,6.029,CST-1368DR,8842,12368,15496,0.031,551
2019-07-01T07:13:02,42.805,6.029,CST-1368DR,8842,12373,15501,0.030,550
2019-07-01T07:16:04,42.805,6.029,CST-1368DR,8842,12373,15501,0.030,551
2019-07-01T07:19:05,42.805,6.029,CST-1368DR,8842,12372,15501,0.030,551
2019-07-01T07:22:07,42.805,6.029,CST-1368DR,8841,12373,15503,0.029,551
2019-07-01T07:25:08,42.805,6.029,CST-1368DR,8841,12371,15501,0.030,551
2019-07-01T07:28:09,42.805,6.029,CST-1368DR,8841,12372,15502,0.029,551
2019-07-01T07:31:11,42.805,6.029,CST-1368DR,8841,12371,15501,0.030,551
2019-07-01T07:34:12,42.805,6.029,CST-1368DR,8841,12373,15503,0.029,551
2019-07-01T07:37:14,42.805,6.029,CST-1368DR,8841,12373,15503,0.029,551
2019-07-01T07:40:15,42.805,6.029,CST-1368DR,8841,12372,15502,0.029,551
2019-07-01T07:43:17,42.805,6.029,CST-1368DR,8841,12370,15500,0.030,551
2019-07-01T07:46:18,42.805,6.029,CST-1368DR,8841,12372,15503,0.029,551
2019-07-01T07:49:19,42.805,6.029,CST-1368DR,8841,12371,15501,0.030,551
2019-07-01T07:52:21,42.805,6.029,CST-1368DR,8841,12371,15501,0.030,551
2019-07-01T07:55:22,42.805,6.029,CST-1368DR,8841,12372,15502,0.029,550
2019-07-01T07:58:24,42.805,6.029,CST-1368DR,8841,12372,15503,0.029,551
2019-07-01T08:01:25,42.805,6.029,CST-1368DR,8841,12371,15501,0.030,551
2019-07-01T08:04:26,42.805,6.029,CST-1368DR,8841,12370,15499,0.030,551
2019-07-01T08:07:28,42.805,6.029,CST-1368DR,8841,12370,15500,0.030,551
2019-07-01T08:10:29,42.805,6.029,CST-1368DR,8840,12369,15500,0.030,551
2019-07-01T08:13:31,42.805,6.029,CST-1368DR,8840,12307,15422,0.050,551
2019-07-01T08:16:32,42.805,6.029,CST-1368DR,8838,12174,15259,0.093,551
2019-07-01T08:19:33,42.805,6.029,CST-1368DR,8834,11732,14712,0.239,551
2019-07-01T08:22:35,42.805,6.029,CST-1368DR,8833,11587,14531,0.288,551
2019-07-01T08:25:36,42.805,6.029,CST-1368DR,8836,11944,14974,0.168,551
2019-07-01T08:28:38,42.805,6.029,CST-1368DR,8836,11972,15009,0.159,551
2019-07-01T08:31:39,42.805,6.029,CST-1368DR,8837,12046,15100,0.134,551
2019-07-01T08:34:40,42.805,6.029,CST-1368DR,8836,11940,14969,0.169,551
2019-07-01T08:37:42,42.805,6.029,CST-1368DR,8835,11889,14906,0.186,551
2019-07-01T08:40:43,42.805,6.029,CST-1368DR,8839,12339,15464,0.039,551
2019-07-01T08:43:45,42.805,6.029,CST-1368DR,8839,12310,15428,0.048,551
2019-07-01T08:46:46,42.805,6.029,CST-1368DR,8839,12348,15475,0.036,551
2019-07-01T08:49:48,42.805,6.029,CST-1368DR,8840,12367,15497,0.031,551
2019-07-01T08:52:49,42.805,6.029,CST-1368DR,8840,12371,15502,0.029,551
2019-07-01T08:55:50,42.805,6.029,CST-1368DR,8840,12368,15498,0.030,551
2019-07-01T08:58:52,42.805,6.029,CST-1368DR,8840,12370,15501,0.030,550
2019-07-01T09:01:53,42.805,6.029,CST-1368DR,8840,12369,15501,0.030,551
2019-07-01T09:04:55,42.805,6.029,CST-1368DR,8840,12370,15501,0.030,551
2019-07-01T09:07:56,42.805,6.029,CST-1368DR,8839,12371,15504,0.029,551
2019-07-01T09:10:57,42.805,6.029,CST-1368DR,8839,12369,15501,0.030,551
2019-07-01T09:13:59,42.805,6.029,CST-1368DR,8839,12367,15499,0.030,551
2019-07-01T09:17:00,42.805,6.029,CST-1368DR,8839,12370,15503,0.029,551
2019-07-01T09:20:02,42.805,6.029,CST-1368DR,8839,12370,15503,0.029,551
2019-07-01T09:23:03,42.805,6.029,CST-1368DR,8839,12369,15502,0.029,551
2019-07-01T09:26:04,42.805,6.029,CST-1368DR,8839,12370,15503,0.029,551
2019-07-01T09:29:06,42.805,6.029,CST-1368DR,8839,12368,15501,0.030,551
2019-07-01T09:32:07,42.805,6.029,CST-1368DR,8839,12370,15503,0.029,550
2019-07-01T09:35:09,42.805,6.029,CST-1368DR,8839,12370,15503,0.029,550
2019-07-01T09:38:10,42.805,6.029,CST-1368DR,8839,12369,15502,0.029,551
2019-07-01T09:41:11,42.805,6.029,CST-1368DR,8839,12369,15501,0.030,551
2019-07-01T09:44:13,42.805,6.029,CST-1368DR,8839,12370,15503,0.029,551
2019-07-01T09:47:14,42.805,6.029,CST-1368DR,8839,12367,15499,0.030,551
2019-07-01T09:50:16,42.805,6.029,CST-1368DR,8839,12367,15500,0.030,551
2019-07-01T09:53:17,42.805,6.029,CST-1368DR,8839,12369,15502,0.029,551
2019-07-01T09:56:19,42.805,6.029,CST-1368DR,8839,12369,15501,0.030,551
2019-07-01T09:59:20,42.805,6.029,CST-1368DR,8839,12367,15499,0.030,551
2019-07-01T10:02:21,42.805,6.029,CST-1368DR,8839,12368,15500,0.030,551
2019-07-01T10:05:23,42.805,6.029,CST-1368DR,8839,12369,15502,0.029,551
2019-07-01T10:08:24,42.805,6.029,CST-1368DR,8839,12369,15501,0.030,551
2019-07-01T10:11:26,42.805,6.029,CST-1368DR,8839,12361,15492,0.032,550
2019-07-01T10:14:27,42.805,6.029,CST-1368DR,8839,12368,15500,0.030,551
2019-07-01T10:17:28,42.805,6.029,CST-1368DR,8839,12369,15502,0.029,551
2019-07-01T10:20:30,42.805,6.029,CST-1368DR,8839,12366,15498,0.030,551
2019-07-01T10:23:31,42.805,6.029,CST-1368DR,8839,12365,15497,0.031,551
2019-07-01T10:26:33,42.805,6.029,CST-1368DR,8839,12367,15499,0.030,551
2019-07-01T10:29:34,42.805,6.029,CST-1368DR,8838,12368,15502,0.029,551
2019-07-01T10:32:35,42.805,6.029,CST-1368DR,8838,12367,15501,0.030,551
2019-07-01T10:35:37,42.805,6.029,CST-1368DR,8838,12366,15499,0.030,551
2019-07-01T10:38:38,42.805,6.029,CST-1368DR,8838,12365,15499,0.030,551
2019-07-01T10:41:40,42.805,6.029,CST-1368DR,8838,12367,15501,0.030,551
2019-07-01T10:44:41,42.805,6.029,CST-1368DR,8838,12368,15502,0.029,551
2019-07-01T10:47:42,42.805,6.029,CST-1368DR,8838,12367,15501,0.030,551
2019-07-01T10:50:44,42.805,6.029,CST-1368DR,8838,12365,15499,0.030,551
2019-07-01T10:53:45,42.805,6.029,CST-1368DR,8838,12367,15500,0.030,550
2019-07-01T10:56:47,42.805,6.029,CST-1368DR,8838,12365,15499,0.030,551
2019-07-01T10:59:48,42.805,6.029,CST-1368DR,8838,12362,15494,0.031,551
2019-07-01T11:02:50,42.805,6.029,CST-1368DR,8838,12364,15498,0.030,551
2019-07-01T11:05:51,42.805,6.029,CST-1368DR,8838,12368,15502,0.029,551
2019-07-01T11:08:52,42.805,6.029,CST-1368DR,8838,12368,15502,0.029,551
2019-07-01T11:11:54,42.805,6.029,CST-1368DR,8838,12368,15502,0.029,551
2019-07-01T11:14:55,42.805,6.029,CST-1368DR,8838,12367,15501,0.030,551
2019-07-01T11:17:57,42.805,6.029,CST-1368DR,8838,12367,15500,0.030,551
2019-07-01T11:20:58,42.805,6.029,CST-1368DR,8838,12363,15496,0.031,551
2019-07-01T11:23:59,42.805,6.029,CST-1368DR,8838,12363,15496,0.031,551
2019-07-01T11:27:01,42.805,6.029,CST-1368DR,8838,12367,15501,0.030,551
2019-07-01T11:30:02,42.805,6.029,CST-1368DR,8838,12367,15501,0.030,551
2019-07-01T11:33:04,42.805,6.029,CST-1368DR,8838,12366,15499,0.030,551
2019-07-01T11:36:05,42.805,6.029,CST-1368DR,8837,12367,15502,0.029,550
2019-07-01T11:39:06,42.805,6.029,CST-1368DR,8837,12367,15502,0.029,551
2019-07-01T11:42:08,42.805,6.029,CST-1368DR,8837,12367,15502,0.029,551
2019-07-01T11:45:09,42.805,6.029,CST-1368DR,8837,12365,15500,0.030,551
2019-07-01T11:48:11,42.805,6.029,CST-1368DR,8837,12366,15502,0.029,551
2019-07-01T11:51:12,42.805,6.029,CST-1368DR,8837,12367,15502,0.029,551
2019-07-01T11:54:14,42.805,6.029,CST-1368DR,8837,12366,15501,0.030,551
2019-07-01T11:57:15,42.805,6.029,CST-1368DR,8837,12366,15501,0.030,551
2019-07-01T12:00:16,42.805,6.029,CST-1368DR,8837,12367,15502,0.029,550
2019-07-01T12:03:18,42.805,6.029,CST-1368DR,8837,12366,15501,0.030,550
2019-07-01T12:06:19,42.805,6.029,CST-1368DR,8837,12365,15500,0.030,551
2019-07-01T12:09:21,42.805,6.029,CST-1368DR,8837,12366,15501,0.030,551
2019-07-01T12:12:22,42.805,6.029,CST-1368DR,8837,12366,15501,0.030,551
2019-07-01T12:15:23,42.805,6.029,CST-1368DR,8837,12366,15501,0.030,551
2019-07-01T12:18:25,42.805,6.029,CST-1368DR,8837,12367,15502,0.029,551
2019-07-01T12:21:26,42.805,6.029,CST-1368DR,8837,12367,15502,0.029,551
2019-07-01T12:24:28,42.805,6.029,CST-1368DR,8837,12365,15500,0.030,551
2019-07-01T12:27:29,42.805,6.029,CST-1368DR,8837,12365,15500,0.030,551
2019-07-01T12:30:30,42.805,6.029,CST-1368DR,8837,12365,15500,0.030,551
2019-07-01T12:33:32,42.805,6.029,CST-1368DR,8837,12366,15501,0.030,551
2019-07-01T12:36:33,42.805,6.029,CST-1368DR,8837,12366,15501,0.030,551
2019-07-01T12:39:35,42.805,6.029,CST-1368DR,8837,12365,15500,0.030,551
2019-07-01T12:42:36,42.805,6.029,CST-1368DR,8837,12366,15501,0.030,551
2019-07-01T12:45:38,42.805,6.029,CST-1368DR,8836,12366,15502,0.029,551
2019-07-01T12:48:39,42.805,6.029,CST-1368DR,8836,12366,15502,0.029,550
2019-07-01T12:51:40,42.805,6.029,CST-1368DR,8836,12365,15502,0.029,551
2019-07-01T12:54:42,42.805,6.029,CST-1368DR,8836,12367,15504,0.029,551
2019-07-01T12:57:43,42.805,6.029,CST-1368DR,8836,12364,15500,0.030,551
2019-07-01T13:00:45,42.805,6.029,CST-1368DR,8836,12364,15500,0.030,551
2019-07-01T13:03:46,42.805,6.029,CST-1368DR,8836,12365,15502,0.029,551
2019-07-01T13:06:47,42.805,6.029,CST-1368DR,8836,12366,15503,0.029,551
2019-07-01T13:09:49,42.805,6.029,CST-1368DR,8836,12365,15501,0.030,551
2019-07-01T13:12:50,42.805,6.029,CST-1368DR,8836,12365,15501,0.030,551
2019-07-01T13:15:52,42.805,6.029,CST-1368DR,8836,12365,15501,0.030,551
2019-07-01T13:18:53,42.805,6.029,CST-1368DR,8836,12366,15502,0.029,551
2019-07-01T13:21:54,42.805,6.029,CST-1368DR,8836,12364,15500,0.030,550
2019-07-01T13:24:56,42.805,6.029,CST-1368DR,8836,12361,15496,0.031,551
2019-07-01T13:27:57,42.805,6.029,CST-1368DR,8836,12365,15501,0.030,551
2019-07-01T13:30:59,42.805,6.029,CST-1368DR,8836,12365,15501,0.030,551
2019-07-01T13:34:00,42.805,6.029,CST-1368DR,8836,12364,15500,0.030,551
2019-07-01T13:37:01,42.805,6.029,CST-1368DR,8836,12360,15495,0.031,550
2019-07-01T13:40:03,42.805,6.029,CST-1368DR,8836,12364,15500,0.030,551
2019-07-01T13:43:04,42.805,6.029,CST-1368DR,8836,12364,15500,0.030,551
2019-07-01T13:46:06,42.805,6.029,CST-1368DR,8836,12363,15500,0.030,551
2019-07-01T13:49:07,42.805,6.029,CST-1368DR,8836,12364,15501,0.030,550
2019-07-01T13:52:09,42.805,6.029,CST-1368DR,8836,12364,15500,0.030,551
2019-07-01T13:55:10,42.805,6.029,CST-1368DR,8836,12364,15500,0.030,550
2019-07-01T13:58:11,42.805,6.029,CST-1368DR,8836,12364,15500,0.030,551
2019-07-01T14:01:13,42.805,6.029,CST-1368DR,8835,12364,15502,0.029,550
2019-07-01T14:04:14,42.805,6.029,CST-1368DR,8835,12364,15502,0.029,551
2019-07-01T14:07:16,42.805,6.029,CST-1368DR,8835,12364,15502,0.029,551
2019-07-01T14:10:17,42.805,6.029,CST-1368DR,8835,12364,15502,0.029,551
2019-07-01T14:13:18,42.805,6.029,CST-1368DR,8835,12364,15501,0.030,551
2019-07-01T14:16:20,42.805,6.029,CST-1368DR,8835,12364,15502,0.029,551
2019-07-01T14:19:21,42.805,6.029,CST-1368DR,8835,12364,15502,0.029,550
2019-07-01T14:22:23,42.805,6.029,CST-1368DR,8835,12363,15501,0.030,551
2019-07-01T14:25:24,42.805,6.029,CST-1368DR,8835,12365,15503,0.029,551
2019-07-01T14:28:25,42.805,6.029,CST-1368DR,8835,12364,15502,0.029,551
2019-07-01T14:31:27,42.805,6.029,CST-1368DR,8835,12365,15503,0.029,551
2019-07-01T14:34:28,42.805,6.029,CST-1368DR,8835,12364,15502,0.029,551
2019-07-01T14:37:30,42.805,6.029,CST-1368DR,8835,12363,15500,0.030,551
2019-07-01T14:40:31,42.805,6.029,CST-1368DR,8835,12365,15503,0.029,551
2019-07-01T14:43:32,42.805,6.029,CST-1368DR,8835,12363,15501,0.030,551
2019-07-01T14:46:34,42.805,6.029,CST-1368DR,8835,12363,15501,0.030,551
2019-07-01T14:49:35,42.805,6.029,CST-1368DR,8835,12364,15502,0.029,551
2019-07-01T14:52:37,42.805,6.029,CST-1368DR,8835,12360,15496,0.031,551
2019-07-01T14:55:38,42.805,6.029,CST-1368DR,8835,12364,15501,0.030,551
2019-07-01T14:58:40,42.805,6.029,CST-1368DR,8835,12362,15499,0.030,551
2019-07-01T15:01:41,42.805,6.029,CST-1368DR,8835,12364,15502,0.029,551
2019-07-01T15:04:42,42.805,6.029,CST-1368DR,8835,12362,15499,0.030,551
2019-07-01T15:07:44,42.805,6.029,CST-1368DR,8835,12364,15502,0.029,551
2019-07-01T15:10:45,42.805,6.029,CST-1368DR,8835,12364,15502,0.029,551
2019-07-01T15:13:47,42.805,6.029,CST-1368DR,8835,12363,15501,0.030,551
2019-07-01T15:16:48,42.805,6.029,CST-1368DR,8835,12363,15501,0.030,551
2019-07-01T15:19:49,42.805,6.029,CST-1368DR,8835,12364,15502,0.029,551
2019-07-01T15:22:51,42.805,6.029,CST-1368DR,8834,12364,15503,0.029,551
2019-07-01T15:25:52,42.805,6.029,CST-1368DR,8834,12364,15503,0.029,551
2019-07-01T15:28:54,42.805,6.029,CST-1368DR,8834,12363,15502,0.029,551
2019-07-01T15:31:55,42.805,6.029,CST-1368DR,8834,12363,15502,0.029,551
2019-07-01T15:34:56,42.805,6.029,CST-1368DR,8834,12363,15502,0.029,551
2019-07-01T15:37:58,42.805,6.029,CST-1368DR,8834,12363,15502,0.029,551
2019-07-01T15:40:59,42.805,6.029,CST-1368DR,8834,12364,15503,0.029,551
2019-07-01T15:44:01,42.805,6.029,CST-1368DR,8834,12361,15500,0.030,551
2019-07-01T15:47:02,42.805,6.029,CST-1368DR,8834,12363,15502,0.029,551
2019-07-01T15:50:03,42.805,6.029,CST-1368DR,8834,12362,15501,0.030,551
2019-07-01T15:53:05,42.805,6.029,CST-1368DR,8834,12362,15502,0.029,551
2019-07-01T15:56:06,42.805,6.029,CST-1368DR,8834,12361,15500,0.030,551
2019-07-01T15:59:08,42.805,6.029,CST-1368DR,8834,12363,15502,0.029,551
2019-07-01T16:02:09,42.805,6.029,CST-1368DR,8834,12362,15501,0.030,550
2019-07-01T16:05:11,42.805,6.029,CST-1368DR,8834,12361,15500,0.030,551
2019-07-01T16:08:12,42.805,6.029,CST-1368DR,8834,12363,15502,0.029,551
2019-07-01T16:11:13,42.805,6.029,CST-1368DR,8834,12362,15501,0.030,551
2019-07-01T16:14:15,42.805,6.029,CST-1368DR,8834,12362,15501,0.030,551
2019-07-01T16:17:16,42.805,6.029,CST-1368DR,8834,12362,15501,0.030,550
2019-07-01T16:20:18,42.805,6.029,CST-1368DR,8834,12363,15502,0.029,550
2019-07-01T16:23:19,42.805,6.029,CST-1368DR,8834,12360,15498,0.030,551
2019-07-01T16:26:20,42.805,6.029,CST-1368DR,8834,12363,15502,0.029,551
2019-07-01T16:29:22,42.805,6.029,CST-1368DR,8834,12363,15502,0.029,551
2019-07-01T16:32:23,42.805,6.029,CST-1368DR,8834,12361,15500,0.030,550
2019-07-01T16:35:25,42.805,6.029,CST-1368DR,8834,12362,15501,0.030,551
2019-07-01T16:38:26,42.805,6.029,CST-1368DR,8834,12362,15501,0.030,551
2019-07-01T16:41:27,42.805,6.029,CST-1368DR,8834,12362,15501,0.030,551
2019-07-01T16:44:29,42.805,6.029,CST-1368DR,8834,12359,15497,0.031,551
2019-07-01T16:47:30,42.805,6.029,CST-1368DR,8834,12363,15502,0.029,551
2019-07-01T16:50:32,42.805,6.029,CST-1368DR,8833,12361,15501,0.030,551
2019-07-01T16:53:33,42.805,6.029,CST-1368DR,8833,12360,15500,0.030,551
2019-07-01T16:56:35,42.805,6.029,CST-1368DR,8834,12361,15500,0.030,551
2019-07-01T16:59:36,42.805,6.029,CST-1368DR,8833,12361,15502,0.029,551
2019-07-01T17:02:37,42.805,6.029,CST-1368DR,8833,12361,15502,0.029,551
2019-07-01T17:05:39,42.805,6.029,CST-1368DR,8833,12362,15502,0.029,551
2019-07-01T17:08:40,42.805,6.029,CST-1368DR,8833,12361,15501,0.030,551
2019-07-01T17:11:42,42.805,6.029,CST-1368DR,8833,12359,15499,0.030,551
2019-07-01T17:14:43,42.805,6.029,CST-1368DR,8833,12361,15501,0.030,551
2019-07-01T17:17:44,42.805,6.029,CST-1368DR,8833,12361,15502,0.029,551
2019-07-01T17:20:46,42.805,6.029,CST-1368DR,8833,12361,15501,0.030,551
2019-07-01T17:23:47,42.805,6.029,CST-1368DR,8833,12360,15500,0.030,550
2019-07-01T17:26:49,42.805,6.029,CST-1368DR,8833,12361,15501,0.030,551
2019-07-01T17:29:50,42.805,6.029,CST-1368DR,8833,12361,15502,0.029,551
2019-07-01T17:32:51,42.805,6.029,CST-1368DR,8833,12361,15502,0.029,551
2019-07-01T17:35:53,42.805,6.029,CST-1368DR,8833,12359,15499,0.030,551
2019-07-01T17:38:54,42.805,6.029,CST-1368DR,8833,12360,15501,0.030,551
2019-07-01T17:41:56,42.805,6.029,CST-1368DR,8833,12361,15501,0.030,551
2019-07-01T17:44:57,42.805,6.029,CST-1368DR,8833,12361,15502,0.029,550
2019-07-01T17:47:58,42.805,6.029,CST-1368DR,8833,12361,15502,0.029,551
2019-07-01T17:51:00,42.805,6.029,CST-1368DR,8833,12360,15500,0.030,551
2019-07-01T17:54:01,42.805,6.029,CST-1368DR,8833,12360,15500,0.030,551
2019-07-01T17:57:03,42.805,6.029,CST-1368DR,8833,12356,15495,0.031,551
2019-07-01T18:00:04,42.805,6.029,CST-1368DR,8833,12361,15501,0.030,551
2019-07-01T18:03:06,42.805,6.029,CST-1368DR,8833,12361,15501,0.030,551
2019-07-01T18:06:07,42.805,6.029,CST-1368DR,8833,12359,15499,0.030,550
2019-07-01T18:09:08,42.805,6.029,CST-1368DR,8833,12360,15500,0.030,551
2019-07-01T18:12:10,42.805,6.029,CST-1368DR,8833,12360,15500,0.030,551
2019-07-01T18:15:11,42.805,6.029,CST-1368DR,8833,12359,15499,0.030,551
2019-07-01T18:18:13,42.805,6.029,CST-1368DR,8833,12360,15500,0.030,551
2019-07-01T18:21:14,42.805,6.029,CST-1368DR,8832,12361,15503,0.029,551
2019-07-01T18:24:15,42.805,6.029,CST-1368DR,8832,12359,15501,0.030,551
2019-07-01T18:27:17,42.805,6.029,CST-1368DR,8832,12360,15502,0.029,551
2019-07-01T18:30:18,42.805,6.029,CST-1368DR,8832,12360,15502,0.029,551
2019-07-01T18:33:20,42.805,6.029,CST-1368DR,8832,12359,15501,0.030,551
2019-07-01T18:36:21,42.805,6.029,CST-1368DR,8832,12360,15501,0.030,551
2019-07-01T18:39:22,42.805,6.029,CST-1368DR,8832,12360,15502,0.029,551
2019-07-01T18:42:24,42.805,6.029,CST-1368DR,8832,12359,15501,0.030,551
2019-07-01T18:45:25,42.805,6.029,CST-1368DR,8832,12360,15502,0.029,551
2019-07-01T18:48:27,42.805,6.029,CST-1368DR,8832,12359,15501,0.030,551
2019-07-01T18:51:28,42.805,6.029,CST-1368DR,8832,12360,15501,0.030,550
2019-07-01T18:54:29,42.805,6.029,CST-1368DR,8832,12360,15501,0.030,551
2019-07-01T18:57:31,42.805,6.029,CST-1368DR,8832,12360,15502,0.029,551
2019-07-01T19:00:32,42.805,6.029,CST-1368DR,8832,12360,15501,0.030,551
2019-07-01T19:03:34,42.805,6.029,CST-1368DR,8832,12360,15502,0.029,551
2019-07-01T19:06:35,42.805,6.029,CST-1368DR,8832,12360,15501,0.030,551
2019-07-01T19:09:37,42.805,6.029,CST-1368DR,8832,12359,15500,0.030,550
2019-07-01T19:12:38,42.805,6.029,CST-1368DR,8832,12359,15501,0.030,551
2019-07-01T19:15:39,42.805,6.029,CST-1368DR,8832,12358,15500,0.030,551
2019-07-01T19:18:41,42.805,6.029,CST-1368DR,8832,12359,15500,0.030,550
2019-07-01T19:21:42,42.805,6.029,CST-1368DR,8832,12360,15502,0.029,551
2019-07-01T19:24:44,42.805,6.029,CST-1368DR,8832,12358,15499,0.030,551
2019-07-01T19:27:45,42.805,6.029,CST-1368DR,8831,12359,15502,0.029,551
2019-07-01T19:30:46,42.805,6.029,CST-1368DR,8832,12360,15502,0.029,551
2019-07-01T19:33:48,42.805,6.029,CST-1368DR,8832,12360,15502,0.029,551
2019-07-01T19:36:49,42.805,6.029,CST-1368DR,8832,12360,15502,0.029,551
2019-07-01T19:39:51,42.805,6.029,CST-1368DR,8832,12360,15502,0.029,550